CAPE
0 0 0 0 0 0 0 0 0 0 0 0 0 0 0 0 0 0 0 0 0 27 143 222 98 14 7 0 20 89 33 34 0 2 10 258 328 41 289 436 262 0 0 192 102 79 89 97 175 61 102 170 311 930
0 0 0 0 0 0 0 0 0 0 0 0 0 0 0 0 0 0 0 0 0 18 112 85 27 0 0 1 3 1 105 314 233 51 177 320 287 63 36 83 261 257 74 282 120 24 336 256 283 151 161 188 231 749
0 0 0 0 0 0 0 0 0 0 0 0 0 0 0 0 0 0 0 0 0 9 0 26 16 5 1 0 0 0 15 175 326 83 70 225 585 342 364 356 330 457 367 33 258 223 243 178 177 170 154 183 368 730
0 0 0 0 0 0 0 0 0 0 0 0 0 0 0 0 0 0 0 2 0 0 24 0 30 0 0 0 0 0 0 12 49 33 36 0 33 446 401 388 405 521 581 203 77 212 286 385 133 49 173 151 336 678
0 0 0 0 0 0 0 0 0 0 0 0 0 0 0 0 0 0 0 0 0 0 262 195 26 2 0 0 0 0 61 73 124 54 72 51 670 546 363 201 82 288 568 305 590 808 584 492 237 136 65 59 158 842
0 0 0 0 0 0 0 0 0 0 0 0 0 0 0 0 0 0 0 0 0 0 174 164 60 52 4 0 0 0 58 68 145 144 174 480 409 317 173 228 522 325 513 606 805 625 826 549 322 225 9 66 123 889
0 0 0 0 0 0 1 0 0 0 0 0 0 0 0 0 0 0 0 0 0 2 233 143 29 38 55 0 0 0 7 25 223 193 361 122 125 61 7 3 613 499 224 243 161 403 307 240 78 133 28 120 8 764
0 0 0 0 0 0 2 0 0 0 0 0 0 0 0 0 0 0 0 0 0 0 81 156 43 64 10 0 9 42 128 255 215 30 299 136 177 316 272 158 273 299 199 93 32 49 25 223 208 146 71 1 58 784
0 0 0 0 0 0 2 0 0 0 0 0 0 0 0 0 0 0 0 0 0 98 207 36 117 58 31 30 98 196 299 119 434 191 241 161 182 20 0 31 0 25 2 33 5 1 0 1 204 23 0 8 0 664
0 0 0 0 0 0 2 0 0 0 0 0 0 0 0 0 0 0 0 32 37 47 296 198 168 300 112 123 354 339 341 182 228 244 80 92 249 111 158 0 20 160 0 0 0 0 0 0 0 0 0 0 0 127
0 0 0 0 0 0 1 0 1 5 2 0 0 72 109 7 95 118 74 22 0 0 0 86 170 247 38 194 446 450 227 91 31 83 30 48 0 158 155 4 26 19 0 0 0 0 0 0 0 0 0 0 0 0
0 0 0 0 0 0 2 12 1 17 15 8 1 25 37 141 145 60 66 4 0 0 0 0 0 94 90 326 442 393 147 141 0 135 56 24 196 398 88 38 0 0 0 0 0 0 0 0 0 0 0 0 0 0
0 0 0 0 0 0 0 22 19 21 22 12 4 4 76 16 0 1 6 14 0 0 0 0 1 259 161 110 413 419 28 32 79 10 14 10 399 375 185 1 0 0 0 0 0 0 0 0 0 0 0 14 17 75
0 0 0 0 0 2 0 17 10 51 20 14 1 0 8 0 20 26 7 16 2 23 0 35 15 566 478 364 346 176 90 15 9 0 1 191 79 54 1 0 0 0 0 0 0 0 0 0 0 0 18 13 16 8
0 0 0 3 3 0 0 0 17 1 2 9 4 0 0 0 0 3 52 92 111 55 129 110 77 304 199 161 101 96 58 11 0 0 0 192 85 47 14 0 0 0 0 0 0 0 0 0 0 0 24 36 28 7
0 0 1 12 2 0 0 3 4 10 0 7 1 0 29 43 26 12 53 109 92 159 200 170 262 240 212 151 48 60 1 4 6 500 349 259 329 289 360 225 35 0 0 0 0 0 0 0 0 8 10 16 19 15
0 0 5 1 0 0 0 0 7 9 0 0 0 0 1 0 62 62 125 114 180 363 133 222 108 76 296 165 53 6 0 47 927 378 319 713 1111 1272 1161 976 614 370 74 0 0 0 0 0 1 12 23 14 13 10
0 3 13 0 0 0 0 1 0 0 0 0 0 0 21 48 23 82 152 174 126 112 72 118 246 204 138 93 90 52 251 881 1099 1070 1127 1605 1809 1644 1209 1176 960 506 180 0 0 0 0 0 0 2 38 19 21 14
5 0 6 7 0 0 0 0 0 0 0 0 0 0 0 3 10 166 159 109 216 148 105 107 173 86 116 561 546 729 666 1003 1260 1387 1593 1735 1891 1650 1291 1083 830 498 179 10 3 0 0 0 0 1 9 17 3 0
13 0 1 0 0 0 0 0 50 0 0 36 0 0 1 6 154 195 35 30 194 169 101 140 40 531 641 1156 1118 773 963 669 908 731 1308 1292 1461 1446 1207 852 484 329 271 34 3 0 1 1 0 12 1 13 4 9
8 0 6 0 0 0 0 1 28 42 52 67 98 70 14 39 129 157 105 56 20 6 0 118 252 494 822 1442 1217 978 441 262 141 288 432 417 770 836 855 806 488 106 17 0 2 0 0 8 0 10 26 28 17 35
18 3 3 0 0 0 16 34 6 81 54 50 75 158 58 44 58 73 33 21 61 103 221 749 1242 1080 578 842 473 386 90 38 0 3 358 379 256 641 605 493 236 84 55 30 15 5 0 18 37 35 37 19 24 8
0 0 0 0 0 0 0 21 32 18 38 153 90 65 98 149 67 140 99 33 69 661 415 707 1066 1931 1717 1384 1289 798 251 37 0 60 578 590 284 422 184 131 108 64 27 33 0 0 0 12 6 31 23 14 2 4
0 0 57 38 0 0 33 113 12 56 149 66 25 25 61 160 208 187 102 43 131 567 745 1540 1380 1234 1484 1587 1383 1037 950 705 657 592 354 185 122 135 100 67 43 22 8 21 11 2 0 0 0 5 16 5 0 2
0 0 0 0 45 34 19 36 21 27 23 66 65 51 174 285 120 105 134 176 210 197 717 1472 1059 957 912 858 674 958 607 741 185 134 245 133 89 84 18 5 1 2 0 0 0 0 0 0 11 0 2 19 32 14
0 0 0 41 7 25 29 41 35 18 45 73 68 178 108 239 105 103 343 218 135 288 808 946 968 722 413 748 669 540 324 405 366 452 138 26 8 11 8 0 33 39 6 14 23 16 35 41 39 4 5 15 6 6
0 0 22 74 14 67 89 61 73 63 38 45 95 129 61 0 44 414 159 8 23 0 172 561 763 548 371 341 260 228 88 9 21 4 2 8 18 16 7 37 71 98 54 36 13 6 30 24 31 4 27 50 4 3
0 31 76 85 74 78 45 81 68 100 95 322 297 144 75 90 218 451 189 90 103 383 135 322 230 223 249 159 21 0 0 0 12 4 0 0 20 7 107 48 38 65 32 22 18 59 34 32 14 4 0 0 3 2
16 81 23 63 58 32 16 33 109 166 90 125 253 35 3 7 47 522 0 0 153 269 161 59 25 0 0 0 0 7 13 6 5 23 47 44 47 47 57 46 20 22 22 36 47 118 173 90 25 7 6 16 2 4
20 59 82 41 36 0 25 50 328 25 8 9 0 0 0 0 18 310 60 90 27 54 103 15 1 4 5 9 12 22 42 41 51 80 85 52 37 26 39 63 34 23 37 130 61 54 25 21 55 83 54 2 0 0
23 33 21 22 15 19 84 43 62 1 4 7 32 30 11 61 81 74 114 525 232 107 38 38 48 43 39 31 25 18 9 3 0 0 1 0 9 14 10 24 21 13 1 0 0 12 47 126 109 63 18 21 14 5
14 22 18 0 12 112 215 150 55 14 0 0 7 48 333 429 406 512 545 528 183 28 2 10 1 4 5 1 0 0 0 0 0 0 0 0 0 10 22 16 8 4 2 0 4 5 23 10 16 51 74 100 92 19
14 25 32 19 12 6 23 42 66 15 10 8 67 158 185 315 213 394 523 416 56 12 3 0 0 0 17 1 0 0 0 0 0 0 0 0 0 0 0 0 0 0 0 4 6 15 10 0 0 17 32 30 105 148
CIN
-0 -0 -0 -0 -0 -0 -0 -0 -0 -0 -0 -0 -0 -0 -0 -0 -0 -0 -0 -0 -0 -133 -150 -66 -23 -8 -21 -0 -36 -22 -30 -25 -0 -41 -40 -22 -85 -27 -57 -59 -81 -0 -0 -39 -70 -30 -52 -77 -155 -96 -63 -61 -6 -31
-0 -0 -0 -0 -0 -0 -0 -0 -0 -0 -0 -0 -0 -0 -0 -0 -0 -0 -0 -0 -0 -104 -132 -101 -14 -0 -0 -53 -49 -9 -38 -35 -44 -62 -47 -32 -24 -28 -17 -21 -114 -24 -80 -18 -14 -110 -63 -85 -87 -108 -61 -46 -14 -29
-0 -0 -0 -0 -0 -0 -0 -0 -0 -0 -0 -0 -0 -0 -0 -0 -0 -0 -0 -0 -0 -150 -0 -24 -12 -83 -25 -0 -0 -0 -13 -41 -48 -129 -55 -42 -7 -20 -12 -9 -17 -52 -48 -40 -46 -106 -101 -15 -46 -74 -54 -45 -14 -14
-0 -0 -0 -0 -0 -0 -0 -0 -0 -0 -0 -0 -0 -0 -0 -0 -0 -0 -0 -80 -0 -0 -37 -0 -33 -0 -0 -0 -0 -0 -0 -36 -67 -118 -118 -0 -69 -22 -17 -29 -24 -34 -17 -26 -27 -15 -47 -36 -5 -42 -38 -42 -15 -19
-0 -0 -0 -0 -0 -0 -0 -0 -0 -0 -0 -0 -0 -0 -0 -0 -0 -0 -0 -0 -0 -0 -15 -74 -55 -18 -0 -0 -0 -0 -40 -106 -92 -107 -91 -52 -65 -61 -22 -15 -11 -24 -20 -12 -25 -32 -47 -36 -40 -8 -20 -39 -25 -30
-0 -0 -0 -0 -0 -0 -0 -0 -0 -0 -0 -0 -0 -0 -0 -0 -0 -0 -0 -0 -0 -0 -22 -24 -174 -52 -21 -0 -0 -0 -90 -109 -83 -68 -44 -52 -77 -61 -32 -36 -47 -26 -41 -31 -25 -15 -31 -34 -23 -12 -46 -17 -8 -33
-0 -0 -0 -0 -0 -0 -0 -0 -0 -0 -0 -0 -0 -0 -0 -0 -0 -0 -0 -0 -0 -3 -28 -46 -121 -131 -28 -0 -0 -0 -18 -90 -38 -57 -39 -55 -87 -64 -72 -66 -46 -48 -74 -83 -68 -29 -21 -20 -55 -41 -84 -6 -48 -24
-0 -0 -0 -0 -0 -0 -1 -0 -0 -0 -0 -0 -0 -0 -0 -0 -0 -0 -0 -0 -0 -0 -74 -37 -46 -50 -26 -0 -21 -64 -42 -42 -62 -88 -27 -47 -120 -94 -76 -115 -73 -41 -49 -121 -129 -120 -131 -36 -36 -43 -62 -66 -43 -29
-0 -0 -0 -0 -0 -0 -0 -0 -0 -0 -0 -0 -0 -0 -0 -0 -0 -0 -0 -0 -0 -90 -40 -49 -38 -7 -17 -36 -50 -40 -40 -28 -41 -30 -31 -56 -91 -133 -0 -189 -57 -182 -38 -128 -194 -48 -0 -33 -31 -67 -0 -116 -0 -30
-0 -0 -0 -0 -0 -0 -0 -0 -0 -0 -0 -0 -0 -0 -0 -0 -0 -0 -0 -41 -65 -55 -44 -52 -38 -36 -95 -36 -24 -30 -29 -30 -23 -37 -98 -74 -107 -182 -166 -0 -235 -108 -0 -0 -0 -0 -0 -0 -0 -0 -0 -0 -0 -11
-0 -0 -0 -0 -0 -0 -0 -0 -0 -0 -0 -0 -0 -11 -38 -6 -41 -20 -12 -15 -0 -0 -0 -85 -59 -23 -110 -62 -29 -46 -34 -39 -48 -56 -97 -107 -0 -127 -164 -281 -53 -186 -0 -0 -0 -0 -0 -0 -0 -0 -0 -0 -0 -0
-0 -0 -0 -0 -0 -0 -0 -0 -0 -0 -0 -4 -0 -0 -8 -14 -13 -2 -18 -3 -0 -0 -0 -0 -0 -40 -106 -38 -22 -20 -15 -24 -0 -51 -70 -149 -116 -103 -203 -224 -0 -0 -0 -0 -0 -0 -0 -0 -0 -0 -0 -0 -0 -0
-0 -0 -0 -0 -0 -0 -0 -1 -0 -0 -0 -1 -5 -11 -0 -16 -1 -0 -0 -4 -0 -1 -21 -0 -1 -68 -99 -115 -25 -23 -22 -45 -32 -21 -85 -180 -99 -109 -171 -9 -0 -0 -0 -0 -0 -0 -0 -0 -0 -0 -0 -71 -86 -69
-0 -0 -0 -0 -0 -0 -0 -2 -1 -0 -0 -0 -4 -0 -7 -0 -0 -5 -19 -2 -2 -42 -9 -95 -88 -24 -31 -12 -18 -10 -11 -19 -5 -0 -79 -111 -217 -247 -129 -0 -0 -0 -0 -0 -0 -0 -0 -0 -0 -0 -43 -60 -62 -88
-0 -0 -0 -0 -3 -2 -0 -0 -0 -3 -0 -1 -1 -0 -0 -0 -0 -30 -32 -10 -23 -58 -58 -40 -56 -33 -36 -15 -19 -5 -3 -1 -0 -0 -51 -148 -255 -282 -264 -0 -0 -0 -0 -0 -0 -0 -0 -0 -0 -0 -29 -50 -65 -72
-0 -0 -0 -0 -0 -0 -0 -8 -9 -1 -0 -2 -0 -0 -6 -8 -41 -0 -21 -17 -30 -34 -52 -83 -26 -13 -2 -16 -5 -7 -1 -5 -41 -69 -146 -230 -224 -214 -184 -144 -198 -0 -0 -0 -0 -0 -0 -0 -1 -29 -44 -45 -55 -52
-0 -0 -3 -0 -0 -0 -0 -0 -0 -0 -0 -0 -0 -0 -2 -0 -18 -29 -24 -59 -60 -46 -34 -54 -0 -1 -9 -7 -4 -13 -0 -32 -43 -79 -156 -177 -132 -97 -79 -63 -46 -70 -108 -0 -0 -0 -0 -0 -3 -34 -25 -34 -37 -49
-0 -0 -0 -1 -0 -0 -0 -0 -0 -0 -0 -0 -0 -0 -13 -21 -19 -25 -42 -88 -54 -64 -73 -39 -43 -10 -7 -1 -9 -34 -109 -59 -76 -88 -90 -83 -60 -53 -51 -54 -54 -66 -113 -34 -0 -0 -0 -0 -0 -24 -55 -67 -46 -50
-0 -0 -2 -0 -0 -0 -0 -2 -0 -0 -0 -0 -0 -0 -0 -16 -55 -73 -70 -58 -18 -20 -41 -54 -28 -7 -11 -26 -47 -33 -85 -46 -44 -73 -71 -69 -65 -57 -65 -70 -75 -89 -109 -122 -34 -0 -0 -0 -0 -7 -47 -72 -46 -0
-0 -0 -0 -0 -0 -0 -0 -0 -1 -0 -0 -4 -0 -0 -6 -15 -28 -71 -118 -141 -30 -11 -13 -8 -121 -9 -59 -45 -60 -91 -96 -133 -43 -40 -48 -62 -57 -65 -81 -65 -70 -106 -80 -85 -69 -0 -9 -4 -1 -18 -2 -34 -4 -29
-0 -0 -0 -0 -0 -0 -0 -1 -2 -4 -5 -16 -3 -8 -28 -34 -15 -48 -51 -80 -70 -4 -0 -19 -24 -47 -105 -88 -113 -127 -201 -170 -154 -121 -40 -5 -27 -38 -60 -56 -61 -50 -52 -0 -18 -0 -0 -2 -1 -15 -11 -0 -0 -10
-0 -0 -0 -0 -0 -0 -0 -3 -4 -10 -12 -22 -18 -10 -24 -17 -18 -20 -106 -70 -12 -19 -24 -13 -16 -33 -142 -139 -148 -164 -54 -17 -5 -22 -38 -16 -50 -42 -40 -28 -8 -27 -21 -0 -3 -1 -0 -1 -17 -16 -1 -7 -22 -32
-0 -0 -0 -0 -0 -0 -0 -12 -0 -0 -0 -2 -11 -10 -12 -14 -28 -29 -11 -38 -27 -29 -50 -50 -37 -20 -58 -95 -81 -120 -151 -47 -0 -140 -46 -46 -160 -156 -11 -12 -34 -28 -6 -2 -0 -0 -0 -4 -16 -14 -1 -15 -4 -7
-0 -0 -1 -1 -0 -0 -2 -0 -0 -2 -1 -23 -19 -42 -14 -2 -3 -2 -2 -12 -18 -25 -32 -21 -40 -30 -33 -30 -25 -48 -53 -92 -86 -108 -150 -9 -59 -48 -35 -12 -14 -7 -4 -24 -2 -1 -0 -0 -0 -1 -1 -1 -0 -7
-0 -0 -0 -0 -2 -0 -2 -2 -2 -0 -0 -0 -0 -0 -0 -5 -7 -2 -5 -8 -14 -13 -20 -37 -45 -48 -39 -47 -70 -69 -102 -72 -2 -42 -99 -86 -54 -5 -17 -1 -5 -5 -0 -0 -0 -0 -0 -0 -3 -0 -3 -13 -23 -14
-0 -0 -0 -0 -0 -1 -0 -0 -0 -2 -0 -1 -1 -0 -40 -20 -14 -0 -29 -100 -46 -15 -24 -19 -23 -43 -70 -57 -54 -73 -107 -44 -92 -51 -56 -26 -4 -19 -17 -0 -70 -33 -12 -10 -1 -25 -45 -45 -19 -1 -5 -1 -1 -8
-0 -0 -3 -8 -14 -2 -0 -7 -28 -14 -9 -9 -17 -17 -43 -0 -0 -9 -98 -78 -90 -0 -24 -62 -146 -53 -98 -91 -53 -30 -46 -16 -25 -19 -10 -1 -81 -0 -0 -40 -43 -57 -27 -64 -7 -3 -42 -37 -11 -16 -66 -54 -50 -13
-0 -0 -3 -2 -0 -1 -0 -2 -1 -5 -9 -8 -4 -1 -2 -8 -19 -17 -81 -185 -159 -151 -24 -12 -34 -27 -34 -18 -17 -0 -0 -0 -79 -73 -0 -0 -46 -37 -31 -66 -50 -21 -26 -30 -13 -84 -121 -144 -72 -44 -0 -0 -6 -1
-13 -5 -3 -10 -8 -1 -2 -0 -3 -12 -7 -2 -4 -25 -95 -76 -52 -32 -0 -1 -146 -131 -63 -19 -23 -0 -0 -0 -0 -51 -57 -49 -32 -17 -2 -5 -9 -11 -12 -23 -3 -88 -48 -14 -68 -110 -126 -146 -32 -5 -57 -41 -11 -13
-17 -1 -0 -6 -0 -0 -3 -1 -4 -1 -32 -30 -0 -0 -0 -0 -8 -46 -45 -18 -63 -51 -16 -12 -3 -2 -14 -7 -11 -17 -21 -27 -10 -23 -24 -9 -9 -10 -16 -13 -19 -29 -25 -31 -13 -6 -33 -30 -30 -46 -53 -13 -0 -0
-3 -1 -0 -1 -2 -2 -14 -34 -37 -12 -1 -17 -31 -10 -4 -37 -55 -20 -23 -11 -10 -10 -6 -7 -5 -12 -5 -9 -5 -11 -3 -0 -0 -0 -13 -13 -13 -30 -39 -30 -26 -37 -20 -0 -0 -59 -27 -47 -45 -62 -73 -5 -5 -16
-1 -1 -0 -0 -0 -16 -34 -20 -54 -102 -0 -5 -18 -28 -20 -35 -3 -2 -7 -11 -9 -14 -6 -10 -8 -5 -6 -4 -0 -0 -0 -0 -0 -0 -0 -0 -0 -45 -20 -17 -25 -23 -16 -1 -7 -9 -6 -15 -9 -12 -63 -49 -38 -19
-5 -7 -1 -0 -12 -2 -2 -4 -4 -86 -66 -13 -36 -33 -49 -34 -10 -5 -9 -18 -37 -2 -3 -0 -0 -0 -27 -5 -0 -0 -0 -0 -0 -0 -0 -0 -0 -0 -0 -0 -0 -0 -0 -9 -4 -6 -8 -0 -0 -5 -8 -10 -7 -9
Wind_Speed
nan nan nan nan nan nan nan nan nan nan nan nan nan nan nan nan nan nan nan nan nan nan 16 19 nan nan nan nan nan nan nan nan nan nan nan 15 22 nan 9 11 9 nan nan 12 20 nan nan nan 22 nan 17 35 44 44
nan nan nan nan nan nan nan nan nan nan nan nan nan nan nan nan nan nan nan nan nan nan 16 nan nan nan nan nan nan nan 16 15 12 nan 13 11 17 nan nan nan 15 15 nan 16 20 nan 15 19 18 20 26 31 27 37
nan nan nan nan nan nan nan nan nan nan nan nan nan nan nan nan nan nan nan nan nan nan nan nan nan nan nan nan nan nan nan 18 13 nan nan 9 14 14 13 16 8 24 10 nan 27 15 12 13 22 24 26 17 21 32
nan nan nan nan nan nan nan nan nan nan nan nan nan nan nan nan nan nan nan nan nan nan nan nan nan nan nan nan nan nan nan nan nan nan nan nan nan 17 17 20 18 21 19 17 nan 27 17 30 27 nan 22 24 22 31
nan nan nan nan nan nan nan nan nan nan nan nan nan nan nan nan nan nan nan nan nan nan 16 11 nan nan nan nan nan nan nan nan 10 nan nan nan 21 18 14 17 nan 20 12 15 14 22 24 23 23 19 nan nan 25 28
nan nan nan nan nan nan nan nan nan nan nan nan nan nan nan nan nan nan nan nan nan nan 12 9 nan nan nan nan nan nan nan nan 9 11 10 14 12 15 12 13 12 18 20 17 16 17 21 22 20 19 nan nan 29 29
nan nan nan nan nan nan nan nan nan nan nan nan nan nan nan nan nan nan nan nan nan nan 13 16 nan nan nan nan nan nan nan nan 9 10 7 11 7 nan nan nan 13 10 19 19 19 16 17 12 nan 16 nan 23 nan 35
nan nan nan nan nan nan nan nan nan nan nan nan nan nan nan nan nan nan nan nan nan nan nan 19 nan nan nan nan nan nan 10 9 9 nan 7 9 8 10 7 6 7 8 10 nan nan nan nan 14 21 20 nan nan nan 27
nan nan nan nan nan nan nan nan nan nan nan nan nan nan nan nan nan nan nan nan nan nan 20 nan 21 nan nan nan nan 15 12 11 8 9 4 10 9 nan nan nan nan nan nan nan nan nan nan nan 18 nan nan nan nan 20
nan nan nan nan nan nan nan nan nan nan nan nan nan nan nan nan nan nan nan nan nan nan 19 18 23 20 19 16 17 18 15 10 9 4 nan nan 5 6 10 nan nan 10 nan nan nan nan nan nan nan nan nan nan nan 21
nan nan nan nan nan nan nan nan nan nan nan nan nan nan 21 nan nan 25 nan nan nan nan nan nan 24 29 nan 15 19 16 12 nan nan nan nan nan nan 5 12 nan nan nan nan nan nan nan nan nan nan nan nan nan nan nan
nan nan nan nan nan nan nan nan nan nan nan nan nan nan nan 24 25 nan nan nan nan nan nan nan nan nan nan 16 23 15 17 14 nan 12 nan nan 3 11 nan nan nan nan nan nan nan nan nan nan nan nan nan nan nan nan
nan nan nan nan nan nan nan nan nan nan nan nan nan nan nan nan nan nan nan nan nan nan nan nan nan 32 24 23 28 21 nan nan nan nan nan nan 11 12 16 nan nan nan nan nan nan nan nan nan nan nan nan nan nan nan
nan nan nan nan nan nan nan nan nan nan nan nan nan nan nan nan nan nan nan nan nan nan nan nan nan 31 32 26 22 18 nan nan nan nan nan 11 nan nan nan nan nan nan nan nan nan nan nan nan nan nan nan nan nan nan
nan nan nan nan nan nan nan nan nan nan nan nan nan nan nan nan nan nan nan nan 23 nan 28 28 nan 32 32 26 24 nan nan nan nan nan nan 9 nan nan nan nan nan nan nan nan nan nan nan nan nan nan nan nan nan nan
nan nan nan nan nan nan nan nan nan nan nan nan nan nan nan nan nan nan nan 20 nan 31 33 33 27 33 31 26 nan nan nan nan nan 16 16 14 17 20 21 22 nan nan nan nan nan nan nan nan nan nan nan nan nan nan
nan nan nan nan nan nan nan nan nan nan nan nan nan nan nan nan nan nan 26 30 26 34 34 36 28 nan 31 25 nan nan nan nan 21 20 17 14 20 23 23 23 24 27 nan nan nan nan nan nan nan nan nan nan nan nan
nan nan nan nan nan nan nan nan nan nan nan nan nan nan nan nan nan nan 19 25 29 33 nan 31 42 42 30 nan nan nan 28 24 24 22 19 17 19 21 21 21 24 28 32 nan nan nan nan nan nan nan nan nan nan nan
nan nan nan nan nan nan nan nan nan nan nan nan nan nan nan nan nan 17 17 23 25 37 47 30 26 nan 23 26 29 30 31 24 24 21 20 19 21 23 24 24 27 31 34 nan nan nan nan nan nan nan nan nan nan nan
nan nan nan nan nan nan nan nan nan nan nan nan nan nan nan nan 11 12 nan nan 32 39 35 29 nan 30 35 30 30 26 28 30 27 24 24 24 26 24 24 26 29 33 35 nan nan nan nan nan nan nan nan nan nan nan
nan nan nan nan nan nan nan nan nan nan nan nan nan nan nan nan 10 11 4 nan nan nan nan 16 17 23 26 31 31 31 31 32 28 24 23 26 31 25 21 20 29 31 nan nan nan nan nan nan nan nan nan nan nan nan
nan nan nan nan nan nan nan nan nan nan nan nan nan 14 nan nan nan nan nan nan nan 20 12 17 26 33 34 30 29 31 nan nan nan nan 29 24 30 35 32 31 29 nan nan nan nan nan nan nan nan nan nan nan nan nan
nan nan nan nan nan nan nan nan nan nan nan 12 nan nan nan 12 nan 17 nan nan nan 16 18 17 22 29 32 32 34 34 31 nan nan nan 27 29 35 33 40 40 38 nan nan nan nan nan nan nan nan nan nan nan nan nan
nan nan nan nan nan nan nan 13 nan nan 17 nan nan nan nan 11 13 14 15 nan 20 23 24 25 26 23 24 28 33 36 35 37 37 36 31 34 33 28 31 nan nan nan nan nan nan nan nan nan nan nan nan nan nan nan
nan nan nan nan nan nan nan nan nan nan nan nan nan nan 11 12 8 5 6 14 23 25 25 30 28 26 26 31 33 32 32 34 34 34 25 29 nan nan nan nan nan nan nan nan nan nan nan nan nan nan nan nan nan nan
nan nan nan nan nan nan nan nan nan nan nan nan nan 8 12 10 10 9 18 21 20 24 23 25 29 30 33 28 24 22 22 22 26 24 26 nan nan nan nan nan nan nan nan nan nan nan nan nan nan nan nan nan nan nan
nan nan nan nan nan nan nan nan nan nan nan nan nan 11 nan nan nan 18 15 nan nan nan 11 9 17 22 20 17 15 16 nan nan nan nan nan nan nan nan nan nan nan nan nan nan nan nan nan nan nan nan nan nan nan nan
nan nan nan nan nan nan nan nan nan 4 nan 8 7 6 nan nan 11 5 6 nan 5 2 8 6 15 19 15 17 nan nan nan nan nan nan nan nan nan nan 23 nan nan nan nan nan nan nan nan nan nan nan nan nan nan nan
nan nan nan nan nan nan nan nan 12 16 nan 10 11 nan nan nan nan 6 nan nan 15 12 7 nan nan nan nan nan nan nan nan nan nan nan nan nan nan nan nan nan nan nan nan nan nan 27 31 nan nan nan nan nan nan nan
nan nan nan nan nan nan nan nan 11 nan nan nan nan nan nan nan nan 10 nan nan nan nan 1 nan nan nan nan nan nan nan nan nan nan nan nan nan nan nan nan nan nan nan nan 27 nan nan nan nan nan nan nan nan nan nan
nan nan nan nan nan nan nan nan nan nan nan nan nan nan nan nan nan nan 5 1 4 4 nan nan nan nan nan nan nan nan nan nan nan nan nan nan nan nan nan nan nan nan nan nan nan nan nan 24 23 nan nan nan nan nan
nan nan nan nan nan 15 12 7 nan nan nan nan nan nan 1 6 4 5 4 4 2 nan nan nan nan nan nan nan nan nan nan nan nan nan nan nan nan nan nan nan nan nan nan nan nan nan nan nan nan nan nan 25 nan nan
nan nan nan nan nan nan nan nan nan nan nan nan nan 4 7 2 5 3 3 5 nan nan nan nan nan nan nan nan nan nan nan nan nan nan nan nan nan nan nan nan nan nan nan nan nan nan nan nan nan nan nan nan 15 15
Wind_Direction
nan nan nan nan nan nan nan nan nan nan nan nan nan nan nan nan nan nan nan nan nan nan 226 214 nan nan nan nan nan nan nan nan nan nan nan 246 274 nan 294 292 304 nan nan 272 241 nan nan nan 235 nan 280 236 251 254
nan nan nan nan nan nan nan nan nan nan nan nan nan nan nan nan nan nan nan nan nan nan 255 nan nan nan nan nan nan nan 269 265 241 nan 248 266 264 nan nan nan 288 294 nan 288 272 nan 290 291 288 277 259 250 233 267
nan nan nan nan nan nan nan nan nan nan nan nan nan nan nan nan nan nan nan nan nan nan nan nan nan nan nan nan nan nan nan 247 249 nan nan 260 269 276 287 284 270 280 296 nan 283 292 260 251 273 274 268 253 263 273
nan nan nan nan nan nan nan nan nan nan nan nan nan nan nan nan nan nan nan nan nan nan nan nan nan nan nan nan nan nan nan nan nan nan nan nan nan 265 281 295 281 287 282 276 nan 294 290 271 279 nan 272 269 252 249
nan nan nan nan nan nan nan nan nan nan nan nan nan nan nan nan nan nan nan nan nan nan 227 229 nan nan nan nan nan nan nan nan 239 nan nan nan 265 265 262 269 nan 274 273 283 287 296 294 291 282 270 nan nan 265 270
nan nan nan nan nan nan nan nan nan nan nan nan nan nan nan nan nan nan nan nan nan nan 231 221 nan nan nan nan nan nan nan nan 248 257 257 275 276 273 273 270 242 270 279 281 288 283 292 300 287 276 nan nan 264 278
nan nan nan nan nan nan nan nan nan nan nan nan nan nan nan nan nan nan nan nan nan nan 217 209 nan nan nan nan nan nan nan nan 255 246 270 291 270 nan nan nan 273 238 285 286 276 287 293 299 nan 311 nan 273 nan 275
nan nan nan nan nan nan nan nan nan nan nan nan nan nan nan nan nan nan nan nan nan nan nan 232 nan nan nan nan nan nan 237 239 253 nan 258 282 283 279 299 301 274 301 296 nan nan nan nan 293 291 285 nan nan nan 291
nan nan nan nan nan nan nan nan nan nan nan nan nan nan nan nan nan nan nan nan nan nan 206 nan 232 nan nan nan nan 223 232 227 246 269 281 278 258 nan nan nan nan nan nan nan nan nan nan nan 312 nan nan nan nan 295
nan nan nan nan nan nan nan nan nan nan nan nan nan nan nan nan nan nan nan nan nan nan 217 201 226 213 218 210 226 229 226 228 251 285 nan nan 289 318 331 nan nan 337 nan nan nan nan nan nan nan nan nan nan nan 285
nan nan nan nan nan nan nan nan nan nan nan nan nan nan 232 nan nan 219 nan nan nan nan nan nan 209 203 nan 206 233 232 235 nan nan nan nan nan nan 297 326 nan nan nan nan nan nan nan nan nan nan nan nan nan nan nan
nan nan nan nan nan nan nan nan nan nan nan nan nan nan nan 225 223 nan nan nan nan nan nan nan nan nan nan 198 238 220 236 238 nan 266 nan nan 226 279 nan nan nan nan nan nan nan nan nan nan nan nan nan nan nan nan
nan nan nan nan nan nan nan nan nan nan nan nan nan nan nan nan nan nan nan nan nan nan nan nan nan 211 217 194 233 236 nan nan nan nan nan nan 269 285 303 nan nan nan nan nan nan nan nan nan nan nan nan nan nan nan
nan nan nan nan nan nan nan nan nan nan nan nan nan nan nan nan nan nan nan nan nan nan nan nan nan 216 214 225 236 232 nan nan nan nan nan 267 nan nan nan nan nan nan nan nan nan nan nan nan nan nan nan nan nan nan
nan nan nan nan nan nan nan nan nan nan nan nan nan nan nan nan nan nan nan nan 207 nan 208 198 nan 220 218 225 233 nan nan nan nan nan nan 287 nan nan nan nan nan nan nan nan nan nan nan nan nan nan nan nan nan nan
nan nan nan nan nan nan nan nan nan nan nan nan nan nan nan nan nan nan nan 188 nan 196 200 202 206 216 221 220 nan nan nan nan nan 254 252 271 290 296 307 315 nan nan nan nan nan nan nan nan nan nan nan nan nan nan
nan nan nan nan nan nan nan nan nan nan nan nan nan nan nan nan nan nan 194 194 192 195 187 188 205 nan 229 220 nan nan nan nan 236 260 268 287 290 296 306 307 312 317 nan nan nan nan nan nan nan nan nan nan nan nan
nan nan nan nan nan nan nan nan nan nan nan nan nan nan nan nan nan nan 185 192 192 192 nan 196 181 219 220 nan nan nan 238 245 253 261 263 272 287 293 300 309 307 305 306 nan nan nan nan nan nan nan nan nan nan nan
nan nan nan nan nan nan nan nan nan nan nan nan nan nan nan nan nan 208 214 196 202 193 183 198 213 nan 222 226 229 228 235 238 262 261 264 283 294 299 308 309 308 304 307 nan nan nan nan nan nan nan nan nan nan nan
nan nan nan nan nan nan nan nan nan nan nan nan nan nan nan nan 216 212 nan nan 199 191 188 186 nan 226 229 230 237 244 243 241 253 273 284 292 291 297 302 301 304 305 301 nan nan nan nan nan nan nan nan nan nan nan
nan nan nan nan nan nan nan nan nan nan nan nan nan nan nan nan 240 243 181 nan nan nan nan 149 194 210 238 238 238 236 244 250 252 253 252 252 277 285 286 289 295 305 nan nan nan nan nan nan nan nan nan nan nan nan
nan nan nan nan nan nan nan nan nan nan nan nan nan 178 nan nan nan nan nan nan nan 217 275 214 219 229 243 249 246 252 nan nan nan nan 257 267 292 300 308 313 303 nan nan nan nan nan nan nan nan nan nan nan nan nan
nan nan nan nan nan nan nan nan nan nan nan 181 nan nan nan 189 nan 211 nan nan nan 233 228 227 219 233 248 257 263 270 285 nan nan nan 290 288 283 280 296 288 289 nan nan nan nan nan nan nan nan nan nan nan nan nan
nan nan nan nan nan nan nan 176 nan nan 148 nan nan nan nan 193 192 192 193 nan 234 242 240 245 247 248 252 262 262 269 275 276 277 277 282 298 299 297 300 nan nan nan nan nan nan nan nan nan nan nan nan nan nan nan
nan nan nan nan nan nan nan nan nan nan nan nan nan nan 207 205 189 226 200 212 217 235 237 239 242 243 249 256 258 265 268 276 284 292 289 294 nan nan nan nan nan nan nan nan nan nan nan nan nan nan nan nan nan nan
nan nan nan nan nan nan nan nan nan nan nan nan nan 177 179 180 184 203 229 219 221 204 204 229 235 236 240 248 260 259 264 274 288 285 294 nan nan nan nan nan nan nan nan nan nan nan nan nan nan nan nan nan nan nan
nan nan nan nan nan nan nan nan nan nan nan nan nan 189 nan nan nan 250 277 nan nan nan 164 209 255 246 261 270 252 242 nan nan nan nan nan nan nan nan nan nan nan nan nan nan nan nan nan nan nan nan nan nan nan nan
nan nan nan nan nan nan nan nan nan 155 nan 164 191 210 nan nan 207 256 321 nan 291 169 163 242 266 269 293 299 nan nan nan nan nan nan nan nan nan nan 330 nan nan nan nan nan nan nan nan nan nan nan nan nan nan nan
nan nan nan nan nan nan nan nan 171 191 nan 180 185 nan nan nan nan 128 nan nan 125 153 125 nan nan nan nan nan nan nan nan nan nan nan nan nan nan nan nan nan nan nan nan nan nan 330 328 nan nan nan nan nan nan nan
nan nan nan nan nan nan nan nan 196 nan nan nan nan nan nan nan nan 130 nan nan nan nan 168 nan nan nan nan nan nan nan nan nan nan nan nan nan nan nan nan nan nan nan nan 322 nan nan nan nan nan nan nan nan nan nan
nan nan nan nan nan nan nan nan nan nan nan nan nan nan nan nan nan nan 127 62 21 338 nan nan nan nan nan nan nan nan nan nan nan nan nan nan nan nan nan nan nan nan nan nan nan nan nan 333 334 nan nan nan nan nan
nan nan nan nan nan 204 215 145 nan nan nan nan nan nan 49 311 302 212 176 180 307 nan nan nan nan nan nan nan nan nan nan nan nan nan nan nan nan nan nan nan nan nan nan nan nan nan nan nan nan nan nan 348 nan nan
nan nan nan nan nan nan nan nan nan nan nan nan nan 265 241 220 99 93 196 186 nan nan nan nan nan nan nan nan nan nan nan nan nan nan nan nan nan nan nan nan nan nan nan nan nan nan nan nan nan nan nan nan 317 322